Last updated on Nov. 28, 2020, 12:02 a.m. UTC
1 43546U 98067NU 20331.81655936 .13652478 12467-4 74947-3 0 9998 2 43546 51.6163 158.6708 0006544 274.8638 85.1642 16.42129147135921
Satellite is not in orbit.